N3SBK Weather Reports


time (UTC)temp
F
wind
direction
speed
knots
gust
knots
rain 1hr
in
rain 24hr
in
rain mn
in
humidity
%
barometer
mb
20260509173821 54 241 0.0 0.0 0.00 0.40 0.40 89 1000.7
20260509173317 54 292 0.0 0.0 0.00 0.40 0.40 90 1000.9
20260509172814 54 323 0.0 0.0 0.00 0.40 0.40 91 1000.6
20260509172311 54 261 0.0 0.0 0.00 0.40 0.40 91 1000.8
20260509171806 53 331 0.0 0.0 0.00 0.40 0.40 92 1000.6
20260509171302 53 348 0.0 0.0 0.05 0.40 0.40 92 1000.5
20260509170759 53 318 0.0 0.0 0.05 0.40 0.40 93 1000.4
20260509170255 52 45 0.0 0.0 0.00 0.39 0.39 93 1000.6
20260509165754 52 261 0.0 0.0 0.00 0.39 0.39 92 1000.6
20260509165249 52 118 0.0 0.0 0.00 0.39 0.39 92 1000.6
20260509164745 52 160 0.9 0.9 0.00 0.39 0.39 92 1000.5
20260509164241 52 185 0.0 1.7 0.00 0.39 0.39 92 1000.4
20260509163738 52 187 0.0 0.9 0.00 0.39 0.39 93 1000.3
20260509163235 51 78 0.9 1.7 0.00 0.39 0.39 93 1000.4
20260509162733 51 122 0.9 2.6 0.07 0.39 0.39 93 1000.7
20260509162227 51 162 0.9 2.6 0.07 0.39 0.39 94 1000.6
20260509161723 51 184 1.7 1.7 0.00 0.38 0.38 93 1000.7
20260509161220 51 173 1.7 2.6 0.05 0.38 0.38 93 1000.5
20260509160715 51 183 1.7 2.6 0.00 0.37 0.37 93 1000.7
20260509160212 51 181 0.9 2.6 0.07 0.37 0.37 93 1000.9
20260509155706 51 184 2.6 2.6 0.07 0.37 0.37 94 1000.8
20260509155203 51 265 0.9 1.7 0.05 0.36 0.36 94 1001.0
20260509154659 51 225 0.9 1.7 0.05 0.36 0.36 94 1000.8
20260509154157 51 188 2.6 2.6 0.07 0.35 0.35 94 1000.9
20260509153654 51 181 0.9 1.7 0.07 0.35 0.35 94 1000.8
20260509153150 51 187 2.6 2.6 0.07 0.34 0.34 94 1000.8
20260509152646 51 260 0.0 1.7 0.07 0.34 0.34 94 1001.1
20260509152143 51 253 0.9 0.9 0.05 0.33 0.33 94 1001.0
20260509151640 51 202 0.9 1.7 0.12 0.33 0.33 94 1000.8
20260509151137 51 140 0.9 2.6 0.07 0.32 0.32 94 1000.9
20260509150635 51 232 0.0 1.7 0.05 0.31 0.31 94 1001.0
20260509150133 51 178 1.7 2.6 0.12 0.31 0.31 94 1001.0
20260509145629 51 234 0.0 0.9 0.12 0.30 0.30 94 1001.1
20260509145124 51 201 0.0 1.7 0.05 0.29 0.29 94 1001.2
20260509144621 51 194 0.9 2.6 0.00 0.28 0.28 94 1001.0
20260509144118 51 176 0.9 2.6 0.07 0.28 0.28 94 1001.2
20260509143615 51 193 1.7 1.7 0.12 0.28 0.28 94 1001.1
20260509143113 51 184 1.7 1.7 0.05 0.27 0.27 94 1001.2
20260509142608 51 195 0.9 1.7 0.07 0.26 0.26 94 1001.2
20260509142104 51 232 0.0 0.9 0.12 0.26 0.26 94 1001.3
20260509141600 51 233 0.0 0.9 0.12 0.25 0.25 94 1001.1
20260509141057 51 163 0.9 1.7 0.12 0.24 0.24 94 1001.3
20260509140554 51 195 1.7 2.6 0.05 0.23 0.23 94 1001.2
20260509140052 51 211 0.0 0.9 0.07 0.22 0.22 94 1001.3
20260509135549 51 193 0.9 1.7 0.07 0.21 0.21 94 1001.2
20260509135047 51 288 0.9 1.7 0.12 0.21 0.21 94 1001.3
20260509134543 51 188 0.9 1.7 0.05 0.20 0.20 94 1001.4
20260509134041 51 241 1.7 1.7 0.07 0.19 0.19 94 1001.4
20260509133538 51 262 0.9 1.7 0.07 0.19 0.19 94 1001.4
20260509133035 51 183 2.6 2.6 0.05 0.18 0.18 94 1001.3
20260509132534 51 64 0.0 0.9 0.05 0.18 0.18 94 1001.2
20260509132032 50 1 0.9 1.7 0.07 0.17 0.17 94 1001.3
20260509131527 50 196 0.9 1.7 0.07 0.17 0.17 94 1001.2
20260509131025 50 197 1.7 1.7 0.05 0.16 0.16 94 1001.6
20260509130520 50 236 0.0 0.9 0.05 0.16 0.16 94 1001.5
20260509130017 50 172 0.9 1.7 0.07 0.15 0.15 94 1001.6
20260509125514 50 262 0.9 1.7 0.05 0.14 0.14 94 1001.6
20260509125010 50 181 1.7 1.7 0.05 0.14 0.14 94 1001.5
20260509124507 50 173 1.7 2.6 0.07 0.13 0.13 94 1001.5
20260509124004 50 164 0.9 2.6 0.07 0.13 0.13 94 1001.6
20260509123502 50 186 0.0 0.9 0.00 0.12 0.12 94 1001.4
20260509122957 50 217 1.7 1.7 0.00 0.12 0.12 94 1001.6
20260509122454 50 125 0.0 1.7 0.05 0.12 0.12 94 1001.6
20260509121951 50 136 0.0 1.7 0.05 0.12 0.12 94 1001.6
20260509121448 50 192 0.0 0.0 0.00 0.11 0.11 94 1001.6
20260509120946 50 235 0.0 0.0 0.07 0.11 0.11 94 1001.6
20260509120444 50 250 0.0 0.0 0.07 0.11 0.11 94 1001.6
20260509115942 50 174 0.0 0.9 0.00 0.10 0.10 94 1001.6
20260509115438 50 139 0.9 0.9 0.05 0.10 0.10 94 1001.7
20260509114936 49 250 0.0 0.0 0.00 0.09 0.09 94 1001.4
20260509114434 49 207 0.0 1.7 0.00 0.09 0.09 93 1001.5
20260509113933 49 92 0.0 1.7 0.07 0.09 0.09 93 1001.6
20260509113430 49 181 0.9 0.9 0.07 0.09 0.09 93 1001.4
20260509112927 49 195 0.9 2.6 0.07 0.08 0.08 93 1001.5
20260509112425 49 194 0.9 0.9 0.07 0.08 0.08 93 1001.5
20260509111921 49 178 0.9 0.9 0.05 0.07 0.07 92 1001.7
20260509111418 49 184 0.9 2.6 0.07 0.06 0.06 92 1001.6
20260509110916 49 171 0.9 1.7 0.07 0.06 0.06 91 1001.5
20260509110411 50 202 0.9 1.7 0.05 0.05 0.05 91 1001.6
20260509105910 50 188 0.9 1.7 0.05 0.05 0.05 91 1001.5
20260509105408 50 252 0.9 2.6 0.00 0.04 0.04 91 1001.5
20260509104905 49 177 1.7 2.6 0.00 0.04 0.04 91 1001.6
20260509104402 49 188 1.7 1.7 0.00 0.04 0.04 91 1001.5
20260509103859 49 180 1.7 1.7 0.00 0.04 0.04 91 1001.4
20260509103356 49 150 0.9 2.6 0.00 0.04 0.04 91 1001.4
20260509102855 49 179 0.9 2.6 0.00 0.04 0.04 91 1001.4
20260509102352 49 209 0.9 2.6 0.00 0.04 0.04 91 1001.6
20260509101847 49 83 0.0 1.7 0.07 0.04 0.04 91 1001.5
20260509101343 49 188 0.0 1.7 0.07 0.04 0.04 91 1001.7
20260509100842 49 217 1.7 1.7 0.00 0.03 0.03 91 1001.7
20260509100338 49 278 0.0 1.7 0.00 0.03 0.03 91 1001.7
20260509095835 49 186 1.7 2.6 0.05 0.03 0.03 90 1001.6
20260509095332 50 259 1.7 1.7 0.05 0.03 0.03 90 1001.7
20260509094830 50 176 1.7 2.6 0.00 0.02 0.02 89 1001.6
20260509094326 50 217 1.7 1.7 0.07 0.02 0.02 88 1002.0
20260509093824 50 233 1.7 1.7 0.07 0.02 0.02 88 1002.0
20260509093321 50 173 1.7 2.6 0.00 0.01 0.01 87 1002.0
20260509092819 50 211 1.7 3.5 0.00 0.01 0.01 86 1002.2
20260509092317 49 184 0.9 1.7 0.05 0.01 0.01 88 1001.9
20260509091815 48 193 0.9 2.6 0.05 0.01 0.01 90 1001.9
20260509091311 48 173 0.9 1.7 0.00 0.00 0.00 92 1001.8
20260509090809 48 75 0.0 0.9 0.00 0.00 0.00 93 1001.8
20260509090305 48 64 0.9 2.6 0.00 0.00 0.00 93 1001.6
20260509085803 48 93 0.0 0.0 0.00 0.00 0.00 93 1001.7
20260509085300 48 126 0.0 0.0 0.00 0.00 0.00 93 1001.5
20260509084757 48 312 0.0 0.9 0.00 0.00 0.00 92 1001.5
20260509084254 48 355 0.0 0.9 0.00 0.00 0.00 92 1001.3
20260509083752 48 258 0.9 0.9 0.00 0.00 0.00 92 1001.1
20260509083248 48 14 0.0 0.9 0.00 0.00 0.00 92 1001.1
20260509082744 48 323 0.0 0.0 0.00 0.00 0.00 92 1001.1
20260509082241 48 140 0.0 0.0 0.00 0.00 0.00 92 1000.6
20260509081738 48 20 0.0 0.0 0.00 0.00 0.00 91 1000.7
20260509081236 48 20 0.0 0.0 0.00 0.00 0.00 91 1000.7
20260509080734 48 22 0.0 0.0 0.00 0.00 0.00 91 1000.7
20260509080231 48 22 0.0 0.0 0.00 0.00 0.00 91 1000.7
20260509075729 48 22 0.0 0.0 0.00 0.00 0.00 91 1000.8
20260509075226 48 22 0.0 0.0 0.00 0.00 0.00 91 1000.8
20260509074723 48 22 0.0 0.0 0.00 0.00 0.00 91 1000.7
20260509074221 48 22 0.0 0.0 0.00 0.00 0.00 91 1000.4
20260509073717 48 22 0.0 0.0 0.00 0.00 0.00 91 1000.5
20260509073213 48 22 0.0 0.0 0.00 0.00 0.00 90 1000.5
20260509072710 48 22 0.0 0.0 0.00 0.00 0.00 91 1000.3
20260509072207 48 75 0.0 0.0 0.00 0.00 0.00 91 1000.3
20260509071703 48 97 0.0 0.0 0.00 0.00 0.00 91 1000.5
20260509071201 47 101 0.0 0.9 0.00 0.00 0.00 91 1000.5
20260509070658 47 83 0.0 0.0 0.00 0.00 0.00 91 1000.7
20260509070154 48 109 0.0 0.0 0.00 0.00 0.00 91 1000.5
20260509065650 48 121 0.0 0.0 0.00 0.00 0.00 91 1000.7
20260509065146 48 162 0.0 0.0 0.00 0.00 0.00 90 1000.8
20260509064643 48 38 0.0 0.0 0.00 0.00 0.00 90 1000.5
20260509064141 48 38 0.0 0.0 0.00 0.00 0.00 90 1000.6
20260509063638 48 38 0.0 0.0 0.00 0.00 0.00 90 1000.8
20260509063134 48 38 0.0 0.0 0.00 0.00 0.00 90 1001.0
20260509062632 48 38 0.0 0.0 0.00 0.00 0.00 89 1001.2
20260509062128 48 38 0.0 0.9 0.00 0.00 0.00 89 1001.4
20260509061625 48 106 0.0 0.0 0.00 0.00 0.00 89 1001.5
20260509061123 48 26 0.0 0.9 0.00 0.00 0.00 89 1001.7
20260509060620 49 26 0.0 0.0 0.00 0.00 0.00 89 1001.8
20260509060116 49 66 0.0 0.0 0.00 0.00 0.00 89 1001.8
20260509055612 49 70 0.0 0.0 0.00 0.00 0.00 88 1001.8
20260509055108 49 88 0.0 0.0 0.00 0.00 0.00 88 1001.7
20260509054604 49 88 0.0 0.0 0.00 0.00 0.00 88 1002.0
20260509054102 49 90 0.0 0.0 0.00 0.00 0.00 88 1001.9
20260509053601 49 62 0.0 0.0 0.00 0.00 0.00 88 1002.2
20260509053057 49 62 0.0 0.0 0.00 0.00 0.00 88 1002.2
20260509052555 49 60 0.0 0.0 0.00 0.00 0.00 88 1002.1
20260509052053 49 67 0.0 0.0 0.00 0.00 0.00 87 1002.1
20260509051551 49 73 0.0 0.0 0.00 0.00 0.00 87 1002.1
20260509051047 49 81 0.0 0.0 0.00 0.00 0.00 87 1002.4
20260509050544 49 81 0.0 0.0 0.00 0.00 0.00 87 1002.6
20260509050041 49 63 0.0 0.0 0.00 0.00 0.00 86 1002.6
20260509045538 49 82 0.0 0.0 0.00 0.00 0.00 86 1002.4
20260509045035 49 96 0.0 0.0 0.00 0.00 0.00 85 1002.4
20260509044533 49 96 0.0 0.0 0.00 0.00 0.00 85 1002.4
20260509044030 49 98 0.0 0.0 0.00 0.00 0.00 85 1002.6
20260509043526 49 98 0.0 0.0 0.00 0.00 0.00 86 1002.7
20260509043022 49 101 0.0 0.0 0.00 0.00 0.00 87 1002.8
20260509042518 49 96 0.0 0.0 0.00 0.00 0.00 86 1002.7
20260509042014 49 99 0.0 0.0 0.00 0.00 0.00 86 1002.8
20260509041511 49 99 0.0 0.0 0.00 0.00 0.00 86 1002.9
20260509041009 49 92 0.0 0.0 0.00 0.00 0.00 86 1002.9
20260509040507 49 101 0.0 0.0 0.00 0.00 0.00 85 1003.0
20260509040004 49 97 0.0 0.0 0.00 0.00 0.00 86 1002.9
20260509035500 49 82 0.0 0.0 0.00 0.00 0.00 86 1003.1
20260509034957 49 93 0.0 0.0 0.00 0.00 0.00 86 1003.3
20260509034455 49 169 0.0 0.0 0.00 0.00 0.00 86 1003.4
20260509033951 49 70 0.0 0.0 0.00 0.00 0.00 85 1003.3
20260509033448 50 89 0.0 0.0 0.00 0.00 0.00 85 1003.4
20260509032945 50 105 0.0 0.0 0.00 0.00 0.00 85 1003.4
20260509032443 50 146 0.0 0.0 0.00 0.00 0.00 85 1003.5
20260509031940 50 63 0.0 0.0 0.00 0.00 0.00 84 1003.3
20260509031437 50 68 0.0 0.0 0.00 0.00 0.00 84 1003.3
20260509030935 50 68 0.0 0.0 0.00 0.00 0.00 83 1003.3
20260509030433 50 68 0.0 0.0 0.00 0.00 0.00 83 1003.3
20260509025929 50 89 0.0 0.0 0.00 0.00 0.00 83 1003.2
20260509025425 50 91 0.0 0.0 0.00 0.00 0.00 81 1003.2
20260509024920 50 79 0.0 0.0 0.00 0.00 0.00 81 1003.1
20260509024417 50 66 0.0 0.0 0.00 0.00 0.00 82 1003.0
20260509023914 50 72 0.0 0.0 0.00 0.00 0.00 81 1003.2
20260509023411 50 93 0.0 0.0 0.00 0.00 0.00 82 1003.1
20260509022908 50 119 0.0 0.0 0.00 0.00 0.00 81 1003.1
20260509022405 50 157 0.0 0.0 0.00 0.00 0.00 81 1003.2
20260509021902 50 35 0.0 0.0 0.00 0.00 0.00 80 1003.0
20260509021359 50 139 0.0 0.0 0.00 0.00 0.00 80 1002.9
20260509020857 50 13 0.0 0.0 0.00 0.00 0.00 80 1002.8
20260509020355 50 65 0.0 0.0 0.00 0.00 0.00 80 1002.6
20260509015852 50 73 0.0 0.0 0.00 0.00 0.00 81 1002.7
20260509015350 50 73 0.0 0.0 0.00 0.00 0.00 78 1002.9
20260509014846 50 72 0.0 0.0 0.00 0.00 0.00 78 1002.5
20260509014343 50 72 0.0 0.0 0.00 0.00 0.00 77 1002.5
20260509013839 50 72 0.0 0.0 0.00 0.00 0.00 76 1002.4
20260509013336 50 73 0.0 0.0 0.00 0.00 0.00 76 1002.5
20260509012832 50 73 0.0 0.0 0.00 0.00 0.00 78 1002.5
20260509012329 50 73 0.0 0.0 0.00 0.00 0.00 79 1002.2
20260509011826 51 72 0.0 0.0 0.00 0.00 0.00 79 1002.5
20260509011324 51 73 0.0 0.0 0.00 0.00 0.00 79 1002.2
20260509010821 51 15 0.0 0.0 0.00 0.00 0.00 80 1002.4
20260509010318 51 77 0.0 0.0 0.00 0.00 0.00 78 1002.4
20260509005815 51 82 0.0 0.0 0.00 0.00 0.00 80 1002.5
20260509005313 51 76 0.0 0.0 0.00 0.00 0.00 78 1002.6
20260509004808 51 85 0.0 0.0 0.00 0.00 0.00 78 1002.7
20260509004304 51 91 0.0 0.0 0.00 0.00 0.00 77 1002.5
20260509003802 51 73 0.0 0.0 0.00 0.00 0.00 79 1002.6
20260509003300 51 73 0.0 0.0 0.00 0.00 0.00 77 1002.5
20260509002757 51 63 0.0 0.0 0.00 0.00 0.00 77 1002.5
20260509002254 51 57 0.0 0.0 0.00 0.00 0.00 75 1002.5
20260509001752 52 57 0.0 0.0 0.00 0.00 0.00 77 1002.6
20260509001247 52 76 0.0 0.0 0.00 0.00 0.00 76 1002.2
20260509000745 52 77 0.0 0.0 0.00 0.00 0.00 75 1002.2
20260509000242 52 83 0.0 0.0 0.00 0.00 0.00 76 1002.2
20260508235739 52 83 0.0 0.0 0.00 0.00 0.00 75 1002.2
20260508235236 52 83 0.0 0.0 0.00 0.00 0.00 74 1002.2
20260508234733 52 82 0.0 0.0 0.00 0.00 0.00 73 1002.4
20260508234230 52 82 0.0 0.0 0.00 0.00 0.00 71 1002.7
20260508233729 52 84 0.0 0.0 0.00 0.00 0.00 72 1002.6
20260508233227 53 86 0.0 0.0 0.00 0.00 0.00 73 1002.5
20260508232724 53 69 0.0 0.0 0.00 0.00 0.00 74 1002.6
20260508232220 53 66 0.0 0.0 0.00 0.00 0.00 72 1002.5
20260508231719 53 61 0.0 0.0 0.00 0.00 0.00 71 1002.5
20260508231215 53 60 0.0 0.0 0.00 0.00 0.00 70 1002.5
20260508230712 54 60 0.0 0.0 0.00 0.00 0.00 68 1002.7
20260508230208 54 34 0.0 0.0 0.00 0.00 0.00 67 1002.5
20260508225706 54 274 0.0 0.0 0.00 0.00 0.00 65 1002.5
20260508225202 55 274 0.0 0.0 0.00 0.00 0.00 65 1002.5
20260508224700 55 274 0.0 0.0 0.00 0.00 0.00 62 1002.4
20260508224157 55 274 0.0 0.0 0.00 0.00 0.00 60 1002.5
20260508223655 55 274 0.0 0.0 0.00 0.00 0.00 60 1002.4
20260508223152 55 274 0.0 0.0 0.00 0.00 0.00 59 1002.7
20260508222649 55 274 0.0 0.0 0.00 0.00 0.00 61 1002.6
20260508222147 56 296 0.0 0.0 0.00 0.00 0.00 59 1002.2
20260508221643 56 296 0.0 0.0 0.00 0.00 0.00 60 1002.5
20260508221138 56 321 0.0 0.0 0.00 0.00 0.00 61 1002.5
20260508220635 56 359 0.0 0.0 0.00 0.00 0.00 62 1002.5
20260508220132 56 120 0.0 0.0 0.00 0.00 0.00 62 1002.6
20260508215628 55 196 0.0 0.0 0.00 0.00 0.00 63 1002.5
20260508215125 55 174 0.0 0.0 0.00 0.00 0.00 65 1002.6
20260508214622 54 137 0.0 0.0 0.00 0.00 0.00 64 1002.5
20260508214119 54 133 0.0 0.0 0.00 0.00 0.00 64 1002.7
20260508213616 54 158 0.0 0.0 0.00 0.00 0.00 65 1002.9
20260508213112 54 172 0.0 0.0 0.00 0.00 0.00 66 1003.0
20260508212609 54 160 0.0 0.0 0.00 0.00 0.00 67 1002.9
20260508212105 54 93 0.0 0.0 0.00 0.00 0.00 72 1003.1
20260508211600 54 85 0.0 0.0 0.00 0.00 0.00 69 1003.0
20260508211057 54 97 0.0 0.0 0.00 0.00 0.00 67 1003.0
20260508210554 54 142 0.0 0.0 0.00 0.00 0.00 66 1003.1
20260508210051 54 177 0.0 0.0 0.00 0.00 0.00 64 1003.2
20260508205548 54 151 0.0 0.9 0.00 0.00 0.00 67 1003.3
20260508205044 54 240 0.9 0.9 0.00 0.00 0.00 66 1003.4
20260508204541 54 250 0.0 0.9 0.00 0.00 0.00 66 1003.3
20260508204037 54 291 0.0 0.9 0.00 0.00 0.00 65 1003.4
20260508203533 54 254 0.0 0.9 0.00 0.00 0.00 64 1003.6
20260508203029 55 270 0.0 0.9 0.00 0.00 0.00 63 1003.4
20260508202526 55 233 0.9 1.7 0.00 0.00 0.00 61 1003.7
20260508202023 55 263 1.7 2.6 0.00 0.00 0.00 61 1003.4
20260508201520 55 271 0.9 1.7 0.00 0.00 0.00 60 1003.7
20260508201016 56 259 1.7 2.6 0.00 0.00 0.00 59 1003.5
20260508200514 56 247 1.7 5.2 0.00 0.00 0.00 57 1003.4
20260508200009 56 289 2.6 5.2 0.00 0.00 0.00 59 1003.6
20260508195506 56 268 2.6 3.5 0.00 0.00 0.00 59 1003.4
20260508195002 56 229 0.9 1.7 0.00 0.00 0.00 58 1003.3
20260508194459 56 256 2.6 3.5 0.00 0.00 0.00 59 1003.6
20260508193956 56 260 1.7 3.5 0.00 0.00 0.00 58 1003.6
20260508193453 56 253 3.5 3.5 0.00 0.00 0.00 57 1003.6
20260508192949 57 253 3.5 5.2 0.00 0.00 0.00 57 1003.8
20260508192446 57 257 2.6 2.6 0.00 0.00 0.00 57 1003.6
20260508191943 57 219 0.9 2.6 0.00 0.00 0.00 58 1003.6
20260508191441 56 283 0.9 1.7 0.00 0.00 0.00 57 1003.7
20260508190937 56 297 0.9 3.5 0.00 0.00 0.00 57 1003.8
20260508190435 56 271 2.6 2.6 0.00 0.00 0.00 58 1003.7
20260508185930 56 253 1.7 1.7 0.00 0.00 0.00 59 1003.6
20260508185428 56 262 1.7 2.6 0.00 0.00 0.00 58 1003.7
20260508184925 57 244 1.7 2.6 0.00 0.00 0.00 55 1004.0
20260508184423 57 213 2.6 3.5 0.00 0.00 0.00 54 1003.7
20260508183919 58 272 1.7 2.6 0.00 0.00 0.00 53 1003.6
20260508183416 58 223 1.7 2.6 0.00 0.00 0.00 51 1003.5
20260508182911 58 314 1.7 3.5 0.00 0.00 0.00 53 1003.5
20260508182409 58 254 2.6 3.5 0.00 0.00 0.00 51 1003.5
20260508181903 59 251 3.5 5.2 0.00 0.00 0.00 50 1003.5
20260508181401 60 225 2.6 3.5 0.00 0.00 0.00 48 1003.4
20260508180858 61 263 3.5 6.1 0.00 0.00 0.00 47 1003.4
20260508180355 61 238 2.6 5.2 0.00 0.00 0.00 47 1003.5
20260508175850 61 238 1.7 2.6 0.00 0.00 0.00 48 1003.5
20260508175348 59 275 2.6 2.6 0.00 0.00 0.00 50 1003.6
20260508174846 58 279 1.7 2.6 0.00 0.00 0.00 54 1003.7
20260508174343 57 226 1.7 3.5 0.00 0.00 0.00 52 1003.8